STARLINK-36399

Last updated on Thu Mar 05 2026 00:02:08 GMT+0000 (Coordinated Universal Time)

1 67665U 26022T 26063.05212598 .00268939 00000+0 17378-2 0 9995 2 67665 97.2835 96.7825 0002496 146.7387 213.4036 15.75321589 4661
UTC large
Height (km)
Speed (km/s)
/
Latitude / Longitude
Inclination (degrees)
Orbital Period (minutes)
Azimuth
Elevation
Range (km)
Doppler Factor

Next 0 passes for location: London (51.5072 / 0.1276)

Sorry there are no passes over London.